Time,TemperatureF,DewpointF,PressureIn,WindDirection,WindDirectionDegrees,WindSpeedMPH,WindSpeedGustMPH,Humidity,HourlyPrecipIn,Conditions,Clouds,dailyrainin,SoftwareType,DateUTC
2013-03-02 00:00:00,33.3,25.6,30.37,NW,315,6.0,7.0,73,0.00,,,0.00,Wunderground v.1.15,2013-03-02 06:00:00,
2013-03-02 00:05:00,33.2,25.5,30.37,NNW,339,6.0,7.0,73,0.00,,,0.00,Wunderground v.1.15,2013-03-02 06:05:00,
2013-03-02 00:07:00,33.2,26.0,30.37,NNW,333,4.0,10.0,74,0.00,,,0.00,weatherlink.com 1.10,2013-03-02 06:07:00,
2013-03-02 00:15:00,33.1,25.7,30.38,NNW,348,6.0,7.0,74,0.00,,,0.00,Wunderground v.1.15,2013-03-02 06:15:00,
2013-03-02 00:20:00,33.0,25.6,30.38,NNW,333,6.0,6.0,74,0.00,,,0.00,Wunderground v.1.15,2013-03-02 06:20:00,
2013-03-02 00:22:00,33.0,26.0,30.38,NW,321,7.0,9.0,74,0.00,,,0.00,weatherlink.com 1.10,2013-03-02 06:22:00,
2013-03-02 00:30:00,32.8,25.4,30.38,North,355,6.0,6.0,74,0.00,,,0.00,Wunderground v.1.15,2013-03-02 06:30:00,
2013-03-02 00:35:00,32.6,25.6,30.38,NW,315,6.0,7.0,75,0.00,,,0.00,Wunderground v.1.15,2013-03-02 06:35:00,
2013-03-02 00:37:00,32.6,26.0,30.38,NW,323,4.0,9.0,75,0.00,,,0.00,weatherlink.com 1.10,2013-03-02 06:37:00,
2013-03-02 00:45:00,32.5,25.5,30.38,North,355,5.0,6.0,75,0.00,,,0.00,Wunderground v.1.15,2013-03-02 06:45:00,
2013-03-02 00:50:00,32.4,25.4,30.38,NNW,331,4.0,4.0,75,0.00,,,0.00,Wunderground v.1.15,2013-03-02 06:50:00,
2013-03-02 00:54:00,32.3,25.0,30.38,NNW,333,4.0,6.0,75,0.00,,,0.00,weatherlink.com 1.10,2013-03-02 06:54:00,
2013-03-02 01:00:00,32.0,25.0,30.38,NNW,340,5.0,5.0,75,0.00,,,0.00,Wunderground v.1.15,2013-03-02 07:00:00,
2013-03-02 01:05:00,31.8,25.1,30.39,NW,324,5.0,7.0,76,0.00,,,0.00,Wunderground v.1.15,2013-03-02 07:05:00,
2013-03-02 01:09:00,31.7,25.0,30.39,NNE,17,3.0,7.0,76,0.00,,,0.00,weatherlink.com 1.10,2013-03-02 07:09:00,
2013-03-02 01:15:00,31.5,24.8,30.39,NW,322,5.0,5.0,76,0.00,,,0.00,Wunderground v.1.15,2013-03-02 07:15:00,
2013-03-02 01:24:00,31.4,25.0,30.39,NW,313,6.0,8.0,76,0.00,,,0.00,weatherlink.com 1.10,2013-03-02 07:24:00,
2013-03-02 01:30:00,31.3,24.6,30.40,NW,311,5.0,7.0,76,0.00,,,0.00,Wunderground v.1.15,2013-03-02 07:30:00,
2013-03-02 01:35:00,31.2,24.5,30.40,NW,317,5.0,7.0,76,0.00,,,0.00,Wunderground v.1.15,2013-03-02 07:35:00,
2013-03-02 01:39:00,31.1,24.0,30.40,NW,319,3.0,7.0,76,0.00,,,0.00,weatherlink.com 1.10,2013-03-02 07:39:00,
2013-03-02 01:45:00,31.0,24.3,30.39,NNW,345,3.0,5.0,76,0.00,,,0.00,Wunderground v.1.15,2013-03-02 07:45:00,
2013-03-02 01:50:00,31.0,24.3,30.39,North,360,3.0,3.0,76,0.00,,,0.00,Wunderground v.1.15,2013-03-02 07:50:00,
2013-03-02 01:53:00,30.9,24.0,30.39,NNW,340,3.0,5.0,76,0.00,,,0.00,weatherlink.com 1.10,2013-03-02 07:53:00,
2013-03-02 02:00:00,31.0,24.3,30.39,North,350,4.0,5.0,76,0.00,,,0.00,Wunderground v.1.15,2013-03-02 08:00:00,
2013-03-02 02:05:00,31.0,24.0,30.39,North,355,4.0,6.0,75,0.00,,,0.00,Wunderground v.1.15,2013-03-02 08:05:00,
2013-03-02 02:09:00,31.0,24.0,30.39,North,5,4.0,8.0,75,0.00,,,0.00,weatherlink.com 1.10,2013-03-02 08:09:00,
2013-03-02 02:15:00,30.9,23.9,30.39,North,351,4.0,5.0,75,0.00,,,0.00,Wunderground v.1.15,2013-03-02 08:15:00,
2013-03-02 02:20:00,30.9,23.9,30.39,NNW,336,4.0,4.0,75,0.00,,,0.00,Wunderground v.1.15,2013-03-02 08:20:00,
2013-03-02 02:24:00,30.8,24.0,30.39,NNW,338,3.0,8.0,75,0.00,,,0.00,weatherlink.com 1.10,2013-03-02 08:24:00,
2013-03-02 02:25:00,30.8,23.8,30.40,NNW,338,4.0,4.0,75,0.00,,,0.00,Wunderground v.1.15,2013-03-02 08:25:00,
2013-03-02 02:30:00,30.8,23.8,30.40,North,349,4.0,4.0,75,0.00,,,0.00,Wunderground v.1.15,2013-03-02 08:30:00,
2013-03-02 02:35:00,30.7,23.7,30.40,NNW,347,4.0,4.0,75,0.00,,,0.00,Wunderground v.1.15,2013-03-02 08:35:00,
2013-03-02 02:39:00,30.7,24.0,30.39,North,355,4.0,7.0,75,0.00,,,0.00,weatherlink.com 1.10,2013-03-02 08:39:00,
2013-03-02 02:45:00,30.5,23.5,30.39,North,355,5.0,5.0,75,0.00,,,0.00,Wunderground v.1.15,2013-03-02 08:45:00,
2013-03-02 02:53:00,30.4,24.0,30.40,NNW,335,2.0,7.0,76,0.00,,,0.00,weatherlink.com 1.10,2013-03-02 08:53:00,
2013-03-02 02:55:00,30.3,23.6,30.40,North,350,4.0,4.0,76,0.00,,,0.00,Wunderground v.1.15,2013-03-02 08:55:00,
2013-03-02 03:00:00,30.3,23.3,30.40,North,355,5.0,5.0,75,0.00,,,0.00,Wunderground v.1.15,2013-03-02 09:00:00,
2013-03-02 03:08:00,30.2,23.0,30.40,North,355,4.0,9.0,75,0.00,,,0.00,weatherlink.com 1.10,2013-03-02 09:08:00,
2013-03-02 03:15:00,30.0,23.0,30.40,North,5,5.0,7.0,75,0.00,,,0.00,Wunderground v.1.15,2013-03-02 09:15:00,
2013-03-02 03:24:00,29.8,22.0,30.40,North,5,4.0,11.0,74,0.00,,,0.00,weatherlink.com 1.10,2013-03-02 09:24:00,
2013-03-02 03:25:00,29.8,22.5,30.40,North,349,6.0,8.0,74,0.00,,,0.00,Wunderground v.1.15,2013-03-02 09:25:00,
2013-03-02 03:30:00,29.7,22.7,30.40,NNE,26,6.0,6.0,75,0.00,,,0.00,Wunderground v.1.15,2013-03-02 09:30:00,
2013-03-02 03:35:00,29.6,22.6,30.40,North,355,5.0,6.0,75,0.00,,,0.00,Wunderground v.1.15,2013-03-02 09:35:00,
2013-03-02 03:39:00,29.4,22.0,30.40,North,360,4.0,11.0,75,0.00,,,0.00,weatherlink.com 1.10,2013-03-02 09:39:00,
2013-03-02 03:45:00,29.3,22.0,30.40,North,10,5.0,6.0,74,0.00,,,0.00,Wunderground v.1.15,2013-03-02 09:45:00,
2013-03-02 03:50:00,29.2,21.9,30.40,North,355,5.0,5.0,74,0.00,,,0.00,Wunderground v.1.15,2013-03-02 09:50:00,
2013-03-02 03:54:00,29.2,22.0,30.40,NNW,344,4.0,9.0,74,0.00,,,0.00,weatherlink.com 1.10,2013-03-02 09:54:00,
2013-03-02 04:00:00,29.0,21.7,30.41,North,360,4.0,4.0,74,0.00,,,0.00,Wunderground v.1.15,2013-03-02 10:00:00,
2013-03-02 04:05:00,29.0,21.4,30.41,North,5,5.0,6.0,73,0.00,,,0.00,Wunderground v.1.15,2013-03-02 10:05:00,
2013-03-02 04:20:00,28.9,20.7,30.41,North,360,6.0,7.0,71,0.00,,,0.00,Wunderground v.1.15,2013-03-02 10:20:00,
2013-03-02 04:24:00,28.9,21.0,30.41,North,11,7.0,12.0,71,0.00,,,0.00,weatherlink.com 1.10,2013-03-02 10:24:00,
2013-03-02 04:30:00,28.8,20.2,30.41,NNW,335,7.0,7.0,70,0.00,,,0.00,Wunderground v.1.15,2013-03-02 10:30:00,
2013-03-02 04:39:00,28.7,20.0,30.41,NNE,14,4.0,10.0,70,0.00,,,0.00,weatherlink.com 1.10,2013-03-02 10:39:00,
2013-03-02 04:40:00,28.7,20.1,30.41,NW,321,6.0,7.0,70,0.00,,,0.00,Wunderground v.1.15,2013-03-02 10:40:00,
2013-03-02 04:50:00,28.5,20.3,30.41,NNW,332,5.0,7.0,71,0.00,,,0.00,Wunderground v.1.15,2013-03-02 10:50:00,
2013-03-02 04:54:00,28.4,20.0,30.41,NNW,341,8.0,9.0,71,0.00,,,0.00,weatherlink.com 1.10,2013-03-02 10:54:00,
2013-03-02 05:00:00,28.3,20.1,30.41,North,360,5.0,5.0,71,0.00,,,0.00,Wunderground v.1.15,2013-03-02 11:00:00,
2013-03-02 05:09:00,28.1,20.0,30.41,NNW,346,4.0,9.0,73,0.00,,,0.00,weatherlink.com 1.10,2013-03-02 11:09:00,
2013-03-02 05:15:00,28.1,20.6,30.41,NNW,342,4.0,5.0,73,0.00,,,0.00,Wunderground v.1.15,2013-03-02 11:15:00,
2013-03-02 05:20:00,28.1,20.9,30.42,NW,323,3.0,3.0,74,0.00,,,0.00,Wunderground v.1.15,2013-03-02 11:20:00,
2013-03-02 05:24:00,28.0,21.0,30.42,NNW,330,5.0,9.0,74,0.00,,,0.00,weatherlink.com 1.10,2013-03-02 11:24:00,
2013-03-02 05:30:00,27.8,20.9,30.42,NNW,344,5.0,5.0,75,0.00,,,0.00,Wunderground v.1.15,2013-03-02 11:30:00,
2013-03-02 05:35:00,27.6,21.0,30.42,NW,308,4.0,6.0,76,0.00,,,0.00,Wunderground v.1.15,2013-03-02 11:35:00,
2013-03-02 05:41:00,27.3,21.0,30.42,NNW,344,4.0,8.0,77,0.00,,,0.00,weatherlink.com 1.10,2013-03-02 11:41:00,
2013-03-02 05:45:00,27.2,20.9,30.42,North,350,4.0,4.0,77,0.00,,,0.00,Wunderground v.1.15,2013-03-02 11:45:00,
2013-03-02 05:50:00,27.2,20.9,30.42,North,350,4.0,4.0,77,0.00,,,0.00,Wunderground v.1.15,2013-03-02 11:50:00,
2013-03-02 05:55:00,27.2,20.9,30.42,North,9,4.0,4.0,77,0.00,,,0.00,Wunderground v.1.15,2013-03-02 11:55:00,
2013-03-02 05:56:00,27.2,21.0,30.42,NNW,332,4.0,7.0,77,0.00,,,0.00,weatherlink.com 1.10,2013-03-02 11:56:00,
2013-03-02 06:05:00,27.2,20.9,30.42,NNW,346,4.0,4.0,77,0.00,,,0.00,Wunderground v.1.15,2013-03-02 12:05:00,
2013-03-02 06:11:00,27.2,21.0,30.42,NNW,338,4.0,6.0,77,0.00,,,0.00,weatherlink.com 1.10,2013-03-02 12:11:00,
2013-03-02 06:20:00,27.0,20.7,30.42,NW,309,4.0,4.0,77,0.00,,,0.00,Wunderground v.1.15,2013-03-02 12:20:00,
2013-03-02 06:25:00,26.8,20.9,30.43,NNW,331,4.0,5.0,78,0.00,,,0.00,Wunderground v.1.15,2013-03-02 12:25:00,
2013-03-02 06:26:00,26.8,21.0,30.43,NW,317,3.0,7.0,78,0.00,,,0.00,weatherlink.com 1.10,2013-03-02 12:26:00,
2013-03-02 06:35:00,26.1,20.5,30.43,NW,319,5.0,6.0,79,0.00,,,0.00,Wunderground v.1.15,2013-03-02 12:35:00,
2013-03-02 06:41:00,25.9,21.0,30.43,NW,316,5.0,8.0,80,0.00,,,0.00,weatherlink.com 1.10,2013-03-02 12:41:00,
2013-03-02 06:50:00,25.8,20.8,30.44,NNW,329,5.0,5.0,81,0.00,,,0.00,Wunderground v.1.15,2013-03-02 12:50:00,
2013-03-02 06:55:00,25.7,20.7,30.44,NW,313,5.0,5.0,81,0.00,,,0.00,Wunderground v.1.15,2013-03-02 12:55:00,
2013-03-02 06:56:00,25.7,21.0,30.44,NNW,338,4.0,9.0,81,0.00,,,0.00,weatherlink.com 1.10,2013-03-02 12:56:00,
2013-03-02 07:00:00,25.6,20.9,30.44,NW,313,5.0,5.0,82,0.00,,,0.00,Wunderground v.1.15,2013-03-02 13:00:00,
2013-03-02 07:10:00,25.6,20.9,30.44,NW,319,5.0,5.0,82,0.00,,,0.00,Wunderground v.1.15,2013-03-02 13:10:00,
2013-03-02 07:11:00,25.6,21.0,30.44,NNW,327,3.0,8.0,82,0.00,,,0.00,weatherlink.com 1.10,2013-03-02 13:11:00,
2013-03-02 07:20:00,25.8,21.1,30.45,NNW,346,4.0,4.0,82,0.00,,,0.00,Wunderground v.1.15,2013-03-02 13:20:00,
2013-03-02 07:25:00,25.9,21.2,30.45,NW,323,4.0,5.0,82,0.00,,,0.00,Wunderground v.1.15,2013-03-02 13:25:00,
2013-03-02 07:26:00,25.9,21.0,30.45,WNW,298,6.0,8.0,82,0.00,,,0.00,weatherlink.com 1.10,2013-03-02 13:26:00,
2013-03-02 07:35:00,26.1,21.4,30.46,NW,313,5.0,6.0,82,0.00,,,0.00,Wunderground v.1.15,2013-03-02 13:35:00,
2013-03-02 07:40:00,26.3,21.6,30.46,NNW,333,6.0,6.0,82,0.00,,,0.00,Wunderground v.1.15,2013-03-02 13:40:00,
2013-03-02 07:41:00,26.3,22.0,30.46,NW,319,5.0,11.0,82,0.00,,,0.00,weatherlink.com 1.10,2013-03-02 13:41:00,
2013-03-02 07:50:00,26.7,21.9,30.47,NW,304,5.0,5.0,82,0.00,,,0.00,Wunderground v.1.15,2013-03-02 13:50:00,
2013-03-02 07:56:00,27.1,22.0,30.46,NW,318,3.0,8.0,82,0.00,,,0.00,weatherlink.com 1.10,2013-03-02 13:56:00,
2013-03-02 08:05:00,27.5,22.4,30.47,NNW,338,5.0,5.0,81,0.00,,,0.00,Wunderground v.1.15,2013-03-02 14:05:00,
2013-03-02 08:10:00,27.8,22.7,30.47,NW,323,5.0,6.0,81,0.00,,,0.00,Wunderground v.1.15,2013-03-02 14:10:00,
2013-03-02 08:11:00,27.9,23.0,30.47,NNW,328,3.0,9.0,80,0.00,,,0.00,weatherlink.com 1.10,2013-03-02 14:11:00,
2013-03-02 08:20:00,28.5,22.8,30.47,NW,317,5.0,6.0,79,0.00,,,0.00,Wunderground v.1.15,2013-03-02 14:20:00,
2013-03-02 08:25:00,28.5,22.5,30.47,NNW,329,5.0,8.0,78,0.00,,,0.00,Wunderground v.1.15,2013-03-02 14:25:00,
2013-03-02 08:26:00,28.5,22.0,30.47,NNW,331,6.0,9.0,78,0.00,,,0.00,weatherlink.com 1.10,2013-03-02 14:26:00,
2013-03-02 08:35:00,29.4,23.1,30.47,NW,318,5.0,6.0,77,0.00,,,0.00,Wunderground v.1.15,2013-03-02 14:35:00,
2013-03-02 08:42:00,30.1,23.0,30.47,North,5,9.0,11.0,74,0.00,,,0.00,weatherlink.com 1.10,2013-03-02 14:42:00,
2013-03-02 08:50:00,30.8,22.2,30.47,North,5,7.0,10.0,70,0.00,,,0.00,Wunderground v.1.15,2013-03-02 14:50:00,
2013-03-02 08:55:00,31.2,21.5,30.47,NNW,340,7.0,10.0,67,0.00,,,0.00,Wunderground v.1.15,2013-03-02 14:55:00,
2013-03-02 08:57:00,31.2,21.0,30.47,North,5,10.0,13.0,66,0.00,,,0.00,weatherlink.com 1.10,2013-03-02 14:57:00,
2013-03-02 09:00:00,31.4,21.3,30.48,NNW,328,7.0,7.0,66,0.00,,,0.00,Wunderground v.1.15,2013-03-02 15:00:00,
2013-03-02 09:10:00,31.6,20.8,30.48,NNW,341,8.0,8.0,64,0.00,,,0.00,Wunderground v.1.15,2013-03-02 15:10:00,
2013-03-02 09:12:00,31.6,21.0,30.48,NW,315,7.0,15.0,65,0.00,,,0.00,weatherlink.com 1.10,2013-03-02 15:12:00,
2013-03-02 09:20:00,32.2,22.1,30.48,North,355,7.0,10.0,66,0.00,,,0.00,Wunderground v.1.15,2013-03-02 15:20:00,
2013-03-02 09:25:00,32.6,22.1,30.48,NNW,330,5.0,10.0,65,0.00,,,0.00,Wunderground v.1.15,2013-03-02 15:25:00,
2013-03-02 09:27:00,32.7,22.0,30.48,North,5,6.0,10.0,65,0.00,,,0.00,weatherlink.com 1.10,2013-03-02 15:27:00,
2013-03-02 09:35:00,32.9,21.3,30.48,NNW,341,8.0,9.0,62,0.00,,,0.00,Wunderground v.1.15,2013-03-02 15:35:00,
2013-03-02 09:42:00,33.3,21.0,30.48,NNW,345,7.0,14.0,60,0.00,,,0.00,weatherlink.com 1.10,2013-03-02 15:42:00,
2013-03-02 09:50:00,33.7,20.5,30.48,NW,319,7.0,7.0,58,0.00,,,0.00,Wunderground v.1.15,2013-03-02 15:50:00,
2013-03-02 09:55:00,34.3,20.6,30.47,NNW,344,7.0,8.0,57,0.00,,,0.00,Wunderground v.1.15,2013-03-02 15:55:00,
2013-03-02 09:57:00,34.4,20.0,30.47,NNW,339,9.0,12.0,57,0.00,,,0.00,weatherlink.com 1.10,2013-03-02 15:57:00,
2013-03-02 10:05:00,34.6,20.5,30.47,NW,317,6.0,8.0,56,0.00,,,0.00,Wunderground v.1.15,2013-03-02 16:05:00,
2013-03-02 10:10:00,35.1,21.4,30.47,North,350,6.0,6.0,57,0.00,,,0.00,Wunderground v.1.15,2013-03-02 16:10:00,
2013-03-02 10:12:00,35.2,21.0,30.47,North,5,6.0,12.0,56,0.00,,,0.00,weatherlink.com 1.10,2013-03-02 16:12:00,
2013-03-02 10:20:00,35.3,20.7,30.47,NW,319,7.0,7.0,55,0.00,,,0.00,Wunderground v.1.15,2013-03-02 16:20:00,
2013-03-02 10:25:00,35.2,20.6,30.47,North,351,7.0,7.0,55,0.00,,,0.00,Wunderground v.1.15,2013-03-02 16:25:00,
2013-03-02 10:27:00,35.3,20.0,30.47,NW,324,10.0,16.0,55,0.00,,,0.00,weatherlink.com 1.10,2013-03-02 16:27:00,
2013-03-02 10:35:00,35.9,20.9,30.47,North,355,8.0,9.0,54,0.00,,,0.00,Wunderground v.1.15,2013-03-02 16:35:00,
2013-03-02 10:44:00,36.5,21.0,30.46,North,355,7.0,14.0,53,0.00,,,0.00,weatherlink.com 1.10,2013-03-02 16:44:00,
2013-03-02 10:50:00,37.1,21.1,30.46,NNW,336,8.0,8.0,52,0.00,,,0.00,Wunderground v.1.15,2013-03-02 16:50:00,
2013-03-02 10:55:00,37.1,21.1,30.45,North,355,8.0,8.0,52,0.00,,,0.00,Wunderground v.1.15,2013-03-02 16:55:00,
2013-03-02 10:59:00,37.4,21.0,30.45,North,360,12.0,13.0,52,0.00,,,0.00,weatherlink.com 1.10,2013-03-02 16:59:00,
2013-03-02 11:05:00,37.8,20.8,30.46,NW,319,8.0,9.0,50,0.00,,,0.00,Wunderground v.1.15,2013-03-02 17:05:00,
2013-03-02 11:14:00,38.4,22.0,30.46,North,355,10.0,13.0,51,0.00,,,0.00,weatherlink.com 1.10,2013-03-02 17:14:00,
2013-03-02 11:20:00,38.7,21.6,30.45,North,351,6.0,6.0,50,0.00,,,0.00,Wunderground v.1.15,2013-03-02 17:20:00,
2013-03-02 11:25:00,38.8,22.2,30.45,NW,321,7.0,7.0,51,0.00,,,0.00,Wunderground v.1.15,2013-03-02 17:25:00,
2013-03-02 11:29:00,38.6,21.0,30.44,North,355,3.0,13.0,50,0.00,,,0.00,weatherlink.com 1.10,2013-03-02 17:29:00,
2013-03-02 11:35:00,39.3,21.7,30.44,NNW,328,5.0,6.0,49,0.00,,,0.00,Wunderground v.1.15,2013-03-02 17:35:00,
2013-03-02 11:40:00,39.8,21.7,30.44,NW,311,6.0,9.0,48,0.00,,,0.00,Wunderground v.1.15,2013-03-02 17:40:00,
2013-03-02 11:43:00,40.0,22.0,30.44,North,5,11.0,11.0,49,0.00,,,0.00,weatherlink.com 1.10,2013-03-02 17:43:00,
2013-03-02 11:50:00,40.3,22.1,30.43,WNW,290,6.0,6.0,48,0.00,,,0.00,Wunderground v.1.15,2013-03-02 17:50:00,
2013-03-02 11:55:00,40.6,21.9,30.43,North,350,5.0,6.0,47,0.00,,,0.00,Wunderground v.1.15,2013-03-02 17:55:00,
2013-03-02 11:59:00,41.3,22.0,30.43,West,274,5.0,14.0,46,0.00,,,0.00,weatherlink.com 1.10,2013-03-02 17:59:00,
2013-03-02 12:05:00,41.0,21.3,30.43,North,355,7.0,10.0,45,0.00,,,0.00,Wunderground v.1.15,2013-03-02 18:05:00,
2013-03-02 12:10:00,41.3,21.5,30.42,NW,311,6.0,6.0,45,0.00,,,0.00,Wunderground v.1.15,2013-03-02 18:10:00,
2013-03-02 12:14:00,42.1,22.0,30.42,North,5,8.0,11.0,45,0.00,,,0.00,weatherlink.com 1.10,2013-03-02 18:14:00,
2013-03-02 12:20:00,42.3,21.4,30.42,North,5,6.0,6.0,43,0.00,,,0.00,Wunderground v.1.15,2013-03-02 18:20:00,
2013-03-02 12:29:00,42.6,22.0,30.41,NNE,14,3.0,10.0,44,0.00,,,0.00,weatherlink.com 1.10,2013-03-02 18:29:00,
2013-03-02 12:35:00,43.5,22.5,30.41,North,5,5.0,5.0,43,0.00,,,0.00,Wunderground v.1.15,2013-03-02 18:35:00,
2013-03-02 12:40:00,44.0,22.4,30.41,North,5,5.0,5.0,42,0.00,,,0.00,Wunderground v.1.15,2013-03-02 18:40:00,
2013-03-02 12:44:00,44.2,22.0,30.41,North,350,8.0,14.0,42,0.00,,,0.00,weatherlink.com 1.10,2013-03-02 18:44:00,
2013-03-02 12:50:00,44.7,23.0,30.40,NNW,346,6.0,9.0,42,0.00,,,0.00,Wunderground v.1.15,2013-03-02 18:50:00,
2013-03-02 12:55:00,44.7,21.8,30.40,North,5,7.0,14.0,40,0.00,,,0.00,Wunderground v.1.15,2013-03-02 18:55:00,
2013-03-02 12:59:00,44.7,22.0,30.39,NNW,348,5.0,15.0,41,0.00,,,0.00,weatherlink.com 1.10,2013-03-02 18:59:00,
2013-03-02 13:05:00,45.3,22.4,30.39,NNW,342,8.0,9.0,40,0.00,,,0.00,Wunderground v.1.15,2013-03-02 19:05:00,
2013-03-02 13:10:00,45.4,21.9,30.39,NW,315,8.0,10.0,39,0.00,,,0.00,Wunderground v.1.15,2013-03-02 19:10:00,
2013-03-02 13:14:00,44.6,21.0,30.38,NNW,339,1.0,12.0,40,0.00,,,0.00,weatherlink.com 1.10,2013-03-02 19:14:00,
2013-03-02 13:20:00,45.1,22.8,30.38,NNW,340,6.0,6.0,41,0.00,,,0.00,Wunderground v.1.15,2013-03-02 19:20:00,
2013-03-02 13:25:00,45.7,22.7,30.38,NW,318,6.0,8.0,40,0.00,,,0.00,Wunderground v.1.15,2013-03-02 19:25:00,
2013-03-02 13:29:00,46.0,23.0,30.37,NW,318,8.0,16.0,40,0.00,,,0.00,weatherlink.com 1.10,2013-03-02 19:29:00,
2013-03-02 13:35:00,46.1,23.1,30.37,NNW,334,6.0,7.0,40,0.00,,,0.00,Wunderground v.1.15,2013-03-02 19:35:00,
2013-03-02 13:40:00,46.4,23.4,30.36,NNW,348,5.0,5.0,40,0.00,,,0.00,Wunderground v.1.15,2013-03-02 19:40:00,
2013-03-02 13:44:00,46.8,23.0,30.36,North,5,3.0,8.0,40,0.00,,,0.00,weatherlink.com 1.10,2013-03-02 19:44:00,
2013-03-02 13:50:00,46.7,23.6,30.35,NW,308,5.0,7.0,40,0.00,,,0.00,Wunderground v.1.15,2013-03-02 19:50:00,
2013-03-02 13:55:00,47.2,24.1,30.35,NW,309,6.0,7.0,40,0.00,,,0.00,Wunderground v.1.15,2013-03-02 19:55:00,
2013-03-02 13:59:00,47.5,24.0,30.35,NNW,331,2.0,12.0,40,0.00,,,0.00,weatherlink.com 1.10,2013-03-02 19:59:00,
2013-03-02 14:05:00,47.5,24.9,30.35,North,355,4.0,8.0,41,0.00,,,0.00,Wunderground v.1.15,2013-03-02 20:05:00,
2013-03-02 14:14:00,47.9,24.0,30.35,NW,306,6.0,8.0,40,0.00,,,0.00,weatherlink.com 1.10,2013-03-02 20:14:00,
2013-03-02 14:20:00,48.3,25.1,30.34,NNW,327,4.0,4.0,40,0.00,,,0.00,Wunderground v.1.15,2013-03-02 20:20:00,
2013-03-02 14:29:00,48.1,25.0,30.34,NNE,13,7.0,10.0,41,0.00,,,0.00,weatherlink.com 1.10,2013-03-02 20:29:00,
2013-03-02 14:35:00,48.8,25.5,30.34,North,355,6.0,7.0,40,0.00,,,0.00,Wunderground v.1.15,2013-03-02 20:35:00,
2013-03-02 14:40:00,48.8,25.5,30.34,NE,36,6.0,6.0,40,0.00,,,0.00,Wunderground v.1.15,2013-03-02 20:40:00,
2013-03-02 14:46:00,49.5,25.0,30.34,North,9,2.0,8.0,39,0.00,,,0.00,weatherlink.com 1.10,2013-03-02 20:46:00,
2013-03-02 14:55:00,49.7,25.7,30.33,North,5,5.0,7.0,39,0.00,,,0.00,Wunderground v.1.15,2013-03-02 20:55:00,
2013-03-02 15:00:00,49.4,25.4,30.33,NE,39,7.0,8.0,39,0.00,,,0.00,Wunderground v.1.15,2013-03-02 21:00:00,
2013-03-02 15:01:00,49.4,25.0,30.33,NNE,17,3.0,12.0,39,0.00,,,0.00,weatherlink.com 1.10,2013-03-02 21:01:00,
2013-03-02 15:10:00,49.8,25.8,30.33,NNW,335,7.0,7.0,39,0.00,,,0.00,Wunderground v.1.15,2013-03-02 21:10:00,
2013-03-02 15:15:00,49.9,25.9,30.33,North,5,8.0,9.0,39,0.00,,,0.00,Wunderground v.1.15,2013-03-02 21:15:00,
2013-03-02 15:16:00,50.0,26.0,30.34,NW,312,9.0,14.0,39,0.00,,,0.00,weatherlink.com 1.10,2013-03-02 21:16:00,
2013-03-02 15:25:00,50.3,26.3,30.33,NNW,329,5.0,9.0,39,0.00,,,0.00,Wunderground v.1.15,2013-03-02 21:25:00,
2013-03-02 15:30:00,50.5,25.8,30.33,NE,40,6.0,9.0,38,0.00,,,0.00,Wunderground v.1.15,2013-03-02 21:30:00,
2013-03-02 15:31:00,50.3,26.0,30.33,NNW,340,6.0,15.0,39,0.00,,,0.00,weatherlink.com 1.10,2013-03-02 21:31:00,
2013-03-02 15:35:00,50.1,26.1,30.33,NW,320,8.0,9.0,39,0.00,,,0.00,Wunderground v.1.15,2013-03-02 21:35:00,
2013-03-02 15:45:00,50.0,26.0,30.32,ENE,63,6.0,8.0,39,0.00,,,0.00,Wunderground v.1.15,2013-03-02 21:45:00,
2013-03-02 15:46:00,49.9,26.0,30.32,NE,45,3.0,12.0,39,0.00,,,0.00,weatherlink.com 1.10,2013-03-02 21:46:00,
2013-03-02 15:50:00,50.0,26.6,30.32,NNE,27,4.0,4.0,40,0.00,,,0.00,Wunderground v.1.15,2013-03-02 21:50:00,
2013-03-02 15:55:00,50.3,26.3,30.32,NNW,340,4.0,9.0,39,0.00,,,0.00,Wunderground v.1.15,2013-03-02 21:55:00,
2013-03-02 16:00:00,50.5,26.4,30.32,NE,49,5.0,5.0,39,0.00,,,0.00,Wunderground v.1.15,2013-03-02 22:00:00,
2013-03-02 16:01:00,50.5,26.0,30.32,NNW,348,6.0,11.0,39,0.00,,,0.00,weatherlink.com 1.10,2013-03-02 22:01:00,
2013-03-02 16:10:00,50.8,26.1,30.32,North,10,5.0,8.0,38,0.00,,,0.00,Wunderground v.1.15,2013-03-02 22:10:00,
2013-03-02 16:15:00,50.6,25.9,30.32,NNE,19,6.0,8.0,38,0.00,,,0.00,Wunderground v.1.15,2013-03-02 22:15:00,
2013-03-02 16:16:00,50.6,26.0,30.32,North,360,5.0,11.0,38,0.00,,,0.00,weatherlink.com 1.10,2013-03-02 22:16:00,
2013-03-02 16:25:00,51.0,26.9,30.31,North,11,4.0,6.0,39,0.00,,,0.00,Wunderground v.1.15,2013-03-02 22:25:00,
2013-03-02 16:30:00,50.9,26.8,30.31,North,360,5.0,8.0,39,0.00,,,0.00,Wunderground v.1.15,2013-03-02 22:30:00,
2013-03-02 16:31:00,50.9,27.0,30.31,NNE,19,7.0,9.0,39,0.00,,,0.00,weatherlink.com 1.10,2013-03-02 22:31:00,
2013-03-02 16:35:00,50.9,26.2,30.31,NW,304,5.0,8.0,38,0.00,,,0.00,Wunderground v.1.15,2013-03-02 22:35:00,
2013-03-02 16:45:00,51.0,26.9,30.31,North,355,5.0,5.0,39,0.00,,,0.00,Wunderground v.1.15,2013-03-02 22:45:00,
2013-03-02 16:46:00,51.0,27.0,30.32,North,5,5.0,9.0,39,0.00,,,0.00,weatherlink.com 1.10,2013-03-02 22:46:00,
2013-03-02 16:50:00,50.8,26.7,30.31,NE,50,5.0,5.0,39,0.00,,,0.00,Wunderground v.1.15,2013-03-02 22:50:00,
2013-03-02 16:55:00,51.0,26.9,30.31,NNW,345,5.0,5.0,39,0.00,,,0.00,Wunderground v.1.15,2013-03-02 22:55:00,
2013-03-02 17:00:00,51.1,27.0,30.32,NE,38,4.0,4.0,39,0.00,,,0.00,Wunderground v.1.15,2013-03-02 23:00:00,
2013-03-02 17:01:00,51.1,27.0,30.31,ENE,67,8.0,8.0,39,0.00,,,0.00,weatherlink.com 1.10,2013-03-02 23:01:00,
2013-03-02 17:05:00,51.2,27.1,30.31,NNW,346,5.0,5.0,39,0.00,,,0.00,Wunderground v.1.15,2013-03-02 23:05:00,
2013-03-02 17:10:00,51.2,27.1,30.31,NNW,331,5.0,5.0,39,0.00,,,0.00,Wunderground v.1.15,2013-03-02 23:10:00,
2013-03-02 17:15:00,51.2,27.1,30.31,NNW,334,4.0,5.0,39,0.00,,,0.00,Wunderground v.1.15,2013-03-02 23:15:00,
2013-03-02 17:16:00,51.2,27.0,30.31,North,5,6.0,8.0,39,0.00,,,0.00,weatherlink.com 1.10,2013-03-02 23:16:00,
2013-03-02 17:25:00,51.0,26.9,30.31,NNW,338,4.0,5.0,39,0.00,,,0.00,Wunderground v.1.15,2013-03-02 23:25:00,
2013-03-02 17:30:00,50.9,26.8,30.31,NE,45,3.0,3.0,39,0.00,,,0.00,Wunderground v.1.15,2013-03-02 23:30:00,
2013-03-02 17:31:00,50.9,27.0,30.31,ENE,63,2.0,7.0,39,0.00,,,0.00,weatherlink.com 1.10,2013-03-02 23:31:00,
2013-03-02 17:40:00,50.8,26.7,30.31,North,360,5.0,5.0,39,0.00,,,0.00,Wunderground v.1.15,2013-03-02 23:40:00,
2013-03-02 17:47:00,50.7,27.0,30.31,North,351,3.0,8.0,40,0.00,,,0.00,weatherlink.com 1.10,2013-03-02 23:47:00,
2013-03-02 17:55:00,50.6,27.1,30.31,NNE,32,3.0,4.0,40,0.00,,,0.00,Wunderground v.1.15,2013-03-02 23:55:00,
2013-03-02 18:00:00,50.5,27.0,30.31,NE,40,3.0,4.0,40,0.00,,,0.00,Wunderground v.1.15,2013-03-03 00:00:00,
2013-03-02 18:02:00,50.4,27.0,30.31,NNE,14,5.0,7.0,40,0.00,,,0.00,weatherlink.com 1.10,2013-03-03 00:02:00,
2013-03-02 18:10:00,50.3,26.9,30.31,NNE,21,3.0,3.0,40,0.00,,,0.00,Wunderground v.1.15,2013-03-03 00:10:00,
2013-03-02 18:15:00,50.1,27.3,30.31,NNE,20,3.0,3.0,41,0.00,,,0.00,Wunderground v.1.15,2013-03-03 00:15:00,
2013-03-02 18:17:00,50.0,27.0,30.30,NNE,20,3.0,4.0,41,0.00,,,0.00,weatherlink.com 1.10,2013-03-03 00:17:00,
2013-03-02 18:25:00,49.9,27.1,30.30,NNE,20,2.0,2.0,41,0.00,,,0.00,Wunderground v.1.15,2013-03-03 00:25:00,
2013-03-02 18:30:00,49.7,26.9,30.30,NNE,20,2.0,2.0,41,0.00,,,0.00,Wunderground v.1.15,2013-03-03 00:30:00,
2013-03-02 18:32:00,49.7,27.0,30.30,NNE,20,1.0,3.0,42,0.00,,,0.00,weatherlink.com 1.10,2013-03-03 00:32:00,
2013-03-02 18:40:00,49.6,27.4,30.30,NNE,20,1.0,2.0,42,0.00,,,0.00,Wunderground v.1.15,2013-03-03 00:40:00,
2013-03-02 18:45:00,49.5,27.3,30.30,NNE,20,2.0,2.0,42,0.00,,,0.00,Wunderground v.1.15,2013-03-03 00:45:00,
2013-03-02 18:47:00,49.4,27.0,30.30,NNE,21,2.0,4.0,42,0.00,,,0.00,weatherlink.com 1.10,2013-03-03 00:47:00,
2013-03-02 18:55:00,49.3,27.7,30.30,NNE,24,3.0,3.0,43,0.00,,,0.00,Wunderground v.1.15,2013-03-03 00:55:00,
2013-03-02 19:02:00,49.0,27.0,30.30,NNE,32,2.0,4.0,43,0.00,,,0.00,weatherlink.com 1.10,2013-03-03 01:02:00,
2013-03-02 19:05:00,48.8,27.3,30.30,NE,56,2.0,3.0,43,0.00,,,0.00,Wunderground v.1.15,2013-03-03 01:05:00,
2013-03-02 19:10:00,48.5,27.6,30.31,ENE,70,2.0,2.0,44,0.00,,,0.00,Wunderground v.1.15,2013-03-03 01:10:00,
2013-03-02 19:15:00,48.2,27.3,30.31,ENE,70,2.0,2.0,44,0.00,,,0.00,Wunderground v.1.15,2013-03-03 01:15:00,
2013-03-02 19:17:00,48.1,27.0,30.31,ENE,70,3.0,5.0,44,0.00,,,0.00,weatherlink.com 1.10,2013-03-03 01:17:00,
2013-03-02 19:25:00,47.6,27.3,30.30,ENE,73,2.0,3.0,45,0.00,,,0.00,Wunderground v.1.15,2013-03-03 01:25:00,
2013-03-02 19:30:00,47.3,27.5,30.30,ENE,73,2.0,2.0,46,0.00,,,0.00,Wunderground v.1.15,2013-03-03 01:30:00,
2013-03-02 19:32:00,47.2,27.0,30.30,ENE,73,2.0,4.0,46,0.00,,,0.00,weatherlink.com 1.10,2013-03-03 01:32:00,
2013-03-02 19:40:00,46.7,27.5,30.29,ENE,73,2.0,2.0,47,0.00,,,0.00,Wunderground v.1.15,2013-03-03 01:40:00,
2013-03-02 19:45:00,46.4,27.2,30.29,ENE,73,1.0,2.0,47,0.00,,,0.00,Wunderground v.1.15,2013-03-03 01:45:00,
2013-03-02 19:47:00,46.3,27.0,30.29,ENE,73,2.0,3.0,47,0.00,,,0.00,weatherlink.com 1.10,2013-03-03 01:47:00,
2013-03-02 19:55:00,45.7,27.6,30.29,ENE,73,2.0,2.0,49,0.00,,,0.00,Wunderground v.1.15,2013-03-03 01:55:00,
2013-03-02 20:00:00,45.5,27.4,30.29,ENE,73,1.0,1.0,49,0.00,,,0.00,Wunderground v.1.15,2013-03-03 02:00:00,
2013-03-02 20:04:00,45.3,27.0,30.29,ENE,76,1.0,3.0,49,0.00,,,0.00,weatherlink.com 1.10,2013-03-03 02:04:00,
2013-03-02 20:05:00,45.3,27.2,30.29,ENE,76,1.0,1.0,49,0.00,,,0.00,Wunderground v.1.15,2013-03-03 02:05:00,
2013-03-02 20:15:00,44.7,27.2,30.29,East,79,2.0,2.0,50,0.00,,,0.00,Wunderground v.1.15,2013-03-03 02:15:00,
2013-03-02 20:18:00,44.7,27.0,30.29,East,79,0.0,3.0,50,0.00,,,0.00,weatherlink.com 1.10,2013-03-03 02:18:00,
2013-03-02 20:20:00,44.6,27.1,30.29,East,79,1.0,2.0,50,0.00,,,0.00,Wunderground v.1.15,2013-03-03 02:20:00,
2013-03-02 20:25:00,44.6,27.6,30.28,East,79,1.0,2.0,51,0.00,,,0.00,Wunderground v.1.15,2013-03-03 02:25:00,
2013-03-02 20:30:00,44.5,27.5,30.29,East,84,2.0,2.0,51,0.00,,,0.00,Wunderground v.1.15,2013-03-03 02:30:00,
2013-03-02 20:34:00,44.4,27.0,30.29,East,98,1.0,5.0,51,0.00,,,0.00,weatherlink.com 1.10,2013-03-03 02:34:00,
2013-03-02 20:40:00,44.2,27.2,30.29,East,98,2.0,3.0,51,0.00,,,0.00,Wunderground v.1.15,2013-03-03 02:40:00,
2013-03-02 20:45:00,44.2,27.2,30.28,SE,142,2.0,3.0,51,0.00,,,0.00,Wunderground v.1.15,2013-03-03 02:45:00,
2013-03-02 20:49:00,44.2,27.0,30.28,ESE,106,1.0,5.0,51,0.00,,,0.00,weatherlink.com 1.10,2013-03-03 02:49:00,
2013-03-02 20:55:00,44.3,27.3,30.29,ESE,106,2.0,2.0,51,0.00,,,0.00,Wunderground v.1.15,2013-03-03 02:55:00,
2013-03-02 21:00:00,44.1,27.1,30.29,ESE,106,2.0,2.0,51,0.00,,,0.00,Wunderground v.1.15,2013-03-03 03:00:00,
2013-03-02 21:04:00,44.0,27.0,30.29,ESE,106,1.0,3.0,51,0.00,,,0.00,weatherlink.com 1.10,2013-03-03 03:04:00,
2013-03-02 21:10:00,44.1,27.1,30.29,ESE,109,1.0,1.0,51,0.00,,,0.00,Wunderground v.1.15,2013-03-03 03:10:00,
2013-03-02 21:19:00,44.0,27.0,30.29,SSE,159,4.0,4.0,51,0.00,,,0.00,weatherlink.com 1.10,2013-03-03 03:19:00,
2013-03-02 21:25:00,43.6,27.1,30.29,SSE,165,2.0,4.0,52,0.00,,,0.00,Wunderground v.1.15,2013-03-03 03:25:00,
2013-03-02 21:34:00,43.2,26.0,30.29,South,182,0.0,5.0,52,0.00,,,0.00,weatherlink.com 1.10,2013-03-03 03:34:00,
2013-03-02 21:40:00,43.2,27.2,30.29,South,182,1.0,1.0,53,0.00,,,0.00,Wunderground v.1.15,2013-03-03 03:40:00,
2013-03-02 21:49:00,43.1,27.0,30.29,South,180,3.0,5.0,53,0.00,,,0.00,weatherlink.com 1.10,2013-03-03 03:49:00,
2013-03-02 21:55:00,43.0,27.0,30.29,South,180,2.0,3.0,53,0.00,,,0.00,Wunderground v.1.15,2013-03-03 03:55:00,
2013-03-02 22:00:00,43.0,27.0,30.29,South,175,2.0,3.0,53,0.00,,,0.00,Wunderground v.1.15,2013-03-03 04:00:00,
2013-03-02 22:04:00,43.0,27.0,30.29,South,171,4.0,5.0,53,0.00,,,0.00,weatherlink.com 1.10,2013-03-03 04:04:00,
2013-03-02 22:10:00,43.2,27.2,30.28,SE,142,3.0,3.0,53,0.00,,,0.00,Wunderground v.1.15,2013-03-03 04:10:00,
2013-03-02 22:15:00,43.0,27.5,30.29,SE,142,2.0,3.0,54,0.00,,,0.00,Wunderground v.1.15,2013-03-03 04:15:00,
2013-03-02 22:19:00,42.8,27.0,30.29,SSE,166,3.0,4.0,55,0.00,,,0.00,weatherlink.com 1.10,2013-03-03 04:19:00,
2013-03-02 22:20:00,42.8,27.7,30.29,SSE,166,2.0,3.0,55,0.00,,,0.00,Wunderground v.1.15,2013-03-03 04:20:00,
2013-03-02 22:25:00,42.6,28.0,30.28,SSE,166,2.0,3.0,56,0.00,,,0.00,Wunderground v.1.15,2013-03-03 04:25:00,
2013-03-02 22:30:00,42.5,27.9,30.29,SSE,155,2.0,4.0,56,0.00,,,0.00,Wunderground v.1.15,2013-03-03 04:30:00,
2013-03-02 22:34:00,42.4,28.0,30.29,SSE,154,0.0,5.0,56,0.00,,,0.00,weatherlink.com 1.10,2013-03-03 04:34:00,
2013-03-02 22:40:00,42.2,28.0,30.29,SSE,147,2.0,2.0,57,0.00,,,0.00,Wunderground v.1.15,2013-03-03 04:40:00,
2013-03-02 22:45:00,41.9,27.3,30.29,SE,145,2.0,4.0,56,0.00,,,0.00,Wunderground v.1.15,2013-03-03 04:45:00,
2013-03-02 22:49:00,41.7,27.0,30.28,SE,145,1.0,4.0,56,0.00,,,0.00,weatherlink.com 1.10,2013-03-03 04:49:00,
2013-03-02 22:55:00,41.5,27.0,30.28,SE,132,3.0,3.0,56,0.00,,,0.00,Wunderground v.1.15,2013-03-03 04:55:00,
2013-03-02 23:00:00,41.4,26.9,30.28,SE,130,3.0,3.0,56,0.00,,,0.00,Wunderground v.1.15,2013-03-03 05:00:00,
2013-03-02 23:04:00,41.6,26.0,30.28,SE,132,2.0,5.0,55,0.00,,,0.00,weatherlink.com 1.10,2013-03-03 05:04:00,
2013-03-02 23:10:00,41.7,26.7,30.28,SSE,165,3.0,3.0,55,0.00,,,0.00,Wunderground v.1.15,2013-03-03 05:10:00,
2013-03-02 23:15:00,41.6,26.6,30.27,SSE,157,3.0,3.0,55,0.00,,,0.00,Wunderground v.1.15,2013-03-03 05:15:00,
2013-03-02 23:19:00,41.5,26.0,30.27,SE,131,5.0,10.0,55,0.00,,,0.00,weatherlink.com 1.10,2013-03-03 05:19:00,
2013-03-02 23:20:00,41.5,26.1,30.27,SE,141,4.0,4.0,54,0.00,,,0.00,Wunderground v.1.15,2013-03-03 05:20:00,
2013-03-02 23:25:00,41.4,26.4,30.26,ESE,115,4.0,5.0,55,0.00,,,0.00,Wunderground v.1.15,2013-03-03 05:25:00,
2013-03-02 23:35:00,41.0,26.5,30.26,SE,125,4.0,4.0,56,0.00,,,0.00,Wunderground v.1.15,2013-03-03 05:35:00,
2013-03-02 23:36:00,40.9,26.0,30.26,SE,125,2.0,9.0,55,0.00,,,0.00,weatherlink.com 1.10,2013-03-03 05:36:00,
2013-03-02 23:45:00,40.4,26.4,30.26,SE,133,3.0,4.0,57,0.00,,,0.00,Wunderground v.1.15,2013-03-03 05:45:00,
2013-03-02 23:49:00,40.4,26.0,30.26,ESE,123,3.0,5.0,57,0.00,,,0.00,weatherlink.com 1.10,2013-03-03 05:49:00,
2013-03-02 23:55:00,40.2,26.2,30.26,SE,137,3.0,4.0,57,0.00,,,0.00,Wunderground v.1.15,2013-03-03 05:55:00,